Weather History for Whiting Fld NAS, FL

Change the Weather History Date:

Monday, November 12, 2012

  Actual Average Record
Temperature  
Mean Temperature 63 °F -  
Max Temperature 75 °F 67 °F 81 °F (2003)
Min Temperature 50 °F 49 °F 39 °F (1996)
Degree Days  
Heating Degree Days 2    
Growing Degree Days 13 (Base 50)    
Moisture  
Dew Point 60 °F    
Average Humidity 93    
Maximum Humidity 100    
Minimum Humidity 73    
Precipitation  
Precipitation 0.14 in - - ()
Sea Level Pressure  
Sea Level Pressure 30.20 in    
Wind  
Wind Speed 8 mph (North)    
Max Wind Speed 14 mph    
Max Gust Speed 21 mph    
Visibility 7 miles    
Events Rain    
Averages and records for this station are not official NWS values.
T = Trace of Precipitation, MM = Missing Value Source: NWS Daily Summary

Daily Weather History Graph

Daily Weather History Graph

Search for Another Location

Airport:

Trip Planner

Search our weather history database for the weather conditions in past years. The results will help you decide how hot, cold, wet, or windy it might be!

Date:

Astronomy

Nov. 12, 2012 Rise Set
Actual Time 6:12 AM CST 4:51 PM CST
Civil Twilight 5:46 AM CST 5:17 PM CST
Nautical Twilight 5:17 AM CST 5:46 PM CST
Astronomical Twilight 4:49 AM CST 6:14 PM CST
Moon 4:40 AM CST (11/12) 3:54 PM CST (11/12)
Length of Visible Light 11h 30m
Length of Day
10h 39m
Waning Crescent, 2% of the Moon is Illuminated
Nov 12
Waning Crescent
Nov 13
New
Nov 20
First Quarter
Nov 28
Full
Dec 6
Last Quarter

Hourly Weather History & Observations

Time (CST) Temp. Dew Point Humidity Pressure Visibility Wind Dir Wind Speed Gust Speed Precip Events Conditions
12:56 AM 60.1 °F 57.9 °F 93% 30.15 in 10.0 mi East 5.8 mph - N/A   Clear
1:56 AM 59.0 °F 57.9 °F 96% 30.15 in 10.0 mi Calm Calm - N/A   Clear
2:56 AM 60.1 °F 59.0 °F 96% 30.13 in 10.0 mi ESE 4.6 mph - N/A   Partly Cloudy
3:56 AM 61.0 °F 59.0 °F 93% 30.12 in 10.0 mi ESE 10.4 mph - N/A   Clear
4:56 AM 64.0 °F 62.1 °F 93% 30.12 in 10.0 mi SE 10.4 mph - N/A   Clear
5:56 AM 64.0 °F 63.0 °F 96% 30.12 in 8.0 mi SE 10.4 mph - N/A   Clear
6:09 AM 64.4 °F 64.4 °F 100% 30.18 in 6.0 mi SE 5.8 mph - N/A   Scattered Clouds
6:22 AM 64.4 °F 64.4 °F 100% 30.19 in 6.0 mi SSE 4.6 mph - N/A   Mostly Cloudy
6:56 AM 64.9 °F 64.9 °F 100% 30.15 in 5.0 mi ESE 8.1 mph - N/A   Overcast
7:56 AM 68.0 °F 66.9 °F 96% 30.16 in 6.0 mi SE 6.9 mph - N/A   Mostly Cloudy
8:03 AM 69.8 °F 66.2 °F 88% 30.20 in 7.0 mi SE 8.1 mph - N/A   Scattered Clouds
8:56 AM 72.0 °F 68.0 °F 87% 30.17 in 9.0 mi SSE 8.1 mph - N/A   Scattered Clouds
9:46 AM 75.2 °F 68.0 °F 78% 30.23 in 10.0 mi South 5.8 mph - N/A   Overcast
9:56 AM 75.0 °F 68.0 °F 79% 30.18 in 10.0 mi South 8.1 mph - N/A   Overcast
10:14 AM 75.2 °F 66.2 °F 73% 30.22 in 10.0 mi South 12.7 mph - N/A   Overcast
10:56 AM 75.0 °F 66.9 °F 76% 30.18 in 10.0 mi South 12.7 mph - N/A   Overcast
11:56 AM 73.9 °F 68.0 °F 82% 30.16 in 9.0 mi South 13.8 mph - 0.00 in Rain Light Rain
12:35 PM 68.0 °F 64.4 °F 88% 30.19 in 9.0 mi NW 9.2 mph 20.7 mph 0.00 in Rain Light Rain
12:48 PM 64.4 °F 64.4 °F 100% 30.19 in 1.8 mi NW 11.5 mph - 0.03 in Rain Rain
12:56 PM 64.9 °F 64.0 °F 97% 30.16 in 1.0 mi NW 9.2 mph - 0.09 in Rain Heavy Rain
1:16 PM 64.4 °F 62.6 °F 94% 30.20 in 3.0 mi NW 11.5 mph 19.6 mph 0.02 in Rain Light Rain
1:49 PM 62.6 °F 62.6 °F 100% 30.20 in 2.0 mi NNW 11.5 mph 17.3 mph 0.03 in Rain Light Rain
1:56 PM 62.1 °F 61.0 °F 96% 30.17 in 2.5 mi NNW 12.7 mph 18.4 mph 0.04 in Rain Rain
2:04 PM 62.6 °F 60.8 °F 94% 30.21 in 3.0 mi NNW 10.4 mph 18.4 mph 0.00 in Rain Light Rain
2:11 PM 62.6 °F 60.8 °F 94% 30.20 in 5.0 mi NNW 12.7 mph 17.3 mph 0.00 in Rain Light Rain
2:17 PM 62.6 °F 60.8 °F 94% 30.20 in 6.0 mi NNW 10.4 mph 17.3 mph 0.00 in Rain Light Rain
2:56 PM 61.0 °F 60.1 °F 97% 30.17 in 2.5 mi NNW 6.9 mph 17.3 mph 0.01 in Rain Light Rain
3:00 PM 60.8 °F 60.8 °F 100% 30.21 in 1.8 mi NNW 10.4 mph 17.3 mph 0.00 in Rain Rain
3:10 PM 60.8 °F 60.8 °F 100% 30.21 in 3.0 mi NNW 9.2 mph 16.1 mph 0.00 in Rain Light Rain
3:24 PM 60.8 °F 60.8 °F 100% 30.22 in 8.0 mi North 4.6 mph - 0.00 in   Overcast
3:56 PM 60.1 °F 59.0 °F 96% 30.19 in 4.0 mi North 6.9 mph - 0.00 in Rain Light Rain
4:49 PM 57.2 °F 57.2 °F 100% 30.24 in 8.0 mi North 11.5 mph 18.4 mph 0.00 in   Overcast
4:56 PM 57.9 °F 57.0 °F 97% 30.21 in 9.0 mi North 9.2 mph 19.6 mph 0.00 in   Overcast
5:02 PM 57.2 °F 57.2 °F 100% 30.24 in 2.5 mi North 8.1 mph 17.3 mph 0.00 in Rain Rain
5:12 PM 57.2 °F 57.2 °F 100% 30.24 in 4.0 mi North 6.9 mph - 0.00 in Rain Light Rain
5:33 PM 57.2 °F 57.2 °F 100% 30.25 in 8.0 mi North 11.5 mph - 0.00 in   Overcast
5:56 PM 57.9 °F 57.0 °F 97% 30.22 in 10.0 mi North 9.2 mph - 0.00 in   Overcast
6:56 PM 57.0 °F 55.0 °F 93% 30.24 in 6.0 mi North 9.2 mph 18.4 mph 0.00 in Rain Light Rain
7:05 PM 57.2 °F 55.4 °F 94% 30.28 in 6.0 mi North 10.4 mph 17.3 mph 0.00 in Rain Light Rain
7:56 PM 55.9 °F 54.0 °F 93% 30.25 in 10.0 mi North 6.9 mph - 0.00 in   Mostly Cloudy
8:21 PM 55.4 °F 53.6 °F 94% 30.28 in 10.0 mi North 8.1 mph - N/A   Mostly Cloudy
8:56 PM 55.9 °F 54.0 °F 93% 30.25 in 10.0 mi North 6.9 mph - N/A   Overcast
9:56 PM 55.0 °F 51.1 °F 86% 30.25 in 10.0 mi North 10.4 mph - N/A   Overcast
10:56 PM 53.1 °F 48.9 °F 86% 30.25 in 10.0 mi North 10.4 mph 20.7 mph N/A   Mostly Cloudy
11:18 PM 51.8 °F 48.2 °F 88% 30.30 in 10.0 mi North 11.5 mph 19.6 mph N/A   Partly Cloudy
11:56 PM 50.0 °F 46.9 °F 89% 30.26 in 10.0 mi North 8.1 mph 17.3 mph N/A   Clear